Hourly Weather Getafe

Today, 4 August, Tuesday

Time Temperature Precipitation Wind Pressure Humidity
00:00 +23°C° 0 mm 6 mps 708 mmHg 42%
01:00 +22°C° 0 mm 6 mps 708 mmHg 44%
02:00 +22°C° 0 mm 5 mps 708 mmHg 46%
03:00 +21°C° 0 mm 5 mps 707 mmHg 48%
04:00 +21°C° 0 mm 5 mps 707 mmHg 48%
05:00 +20°C° 0 mm 4 mps 707 mmHg 49%
06:00 +20°C° 0 mm 4 mps 708 mmHg 49%
07:00 +22°C° 0 mm 4 mps 708 mmHg 44%
08:00 +25°C° 0 mm 4 mps 708 mmHg 39%
09:00 +27°C° 0 mm 4 mps 708 mmHg 34%
10:00 +28°C° 0 mm 3 mps 708 mmHg 30%
11:00 +30°C° 0 mm 2 mps 708 mmHg 27%
12:00 +31°C° 0 mm 1 mps 708 mmHg 23%
13:00 +32°C° 0 mm 1 mps 707 mmHg 22%
14:00 +34°C° 0 mm 2 mps 707 mmHg 21%
15:00 +35°C° 0 mm 2 mps 706 mmHg 19%
16:00 +35°C° 0 mm 2 mps 706 mmHg 19%
17:00 +35°C° 0 mm 2 mps 706 mmHg 19%
18:00 +35°C° 0 mm 2 mps 706 mmHg 19%
19:00 +32°C° 0 mm 1 mps 706 mmHg 22%
20:00 +31°C° 0 mm 1 mps 706 mmHg 24%
21:00 +29°C° 0 mm 1 mps 707 mmHg 26%
22:00 +28°C° 0 mm 2 mps 707 mmHg 28%
23:00 +27°C° 0 mm 3 mps 707 mmHg 29%

Tomorrow, 5 August, Wednesday

Time Temperature Precipitation Wind Pressure Humidity
00:00 +26°C° 0 mm 4 mps 706 mmHg 30%
01:00 +26°C° 0 mm 4 mps 706 mmHg 38%
02:00 +25°C° 0 mm 3 mps 706 mmHg 47%
03:00 +24°C° 0 mm 3 mps 706 mmHg 56%
04:00 +24°C° 0 mm 3 mps 706 mmHg 61%
05:00 +22°C° 0 mm 3 mps 706 mmHg 66%
06:00 +23°C° 0 mm 2 mps 706 mmHg 71%
07:00 +25°C° 0 mm 2 mps 706 mmHg 65%
08:00 +26°C° 0 mm 2 mps 706 mmHg 58%
09:00 +28°C° 0 mm 2 mps 707 mmHg 51%
10:00 +30°C° 0 mm 2 mps 706 mmHg 43%
11:00 +32°C° 0 mm 1 mps 706 mmHg 35%
12:00 +34°C° 0 mm 1 mps 706 mmHg 27%
13:00 +36°C° 0 mm 2 mps 706 mmHg 24%
14:00 +37°C° 0 mm 2 mps 706 mmHg 22%
15:00 +38°C° 0 mm 3 mps 705 mmHg 19%
16:00 +38°C° 0 mm 3 mps 705 mmHg 19%
17:00 +38°C° 0 mm 3 mps 705 mmHg 18%
18:00 +38°C° 0 mm 2 mps 705 mmHg 18%
19:00 +36°C° 0 mm 2 mps 705 mmHg 20%
20:00 +34°C° 0 mm 1 mps 706 mmHg 23%
21:00 +32°C° 0 mm 1 mps 706 mmHg 25%
22:00 +31°C° 0 mm 2 mps 706 mmHg 28%
23:00 +30°C° 0 mm 2 mps 706 mmHg 31%

Day after tomorrow, 6 August, Thursday

Time Temperature Precipitation Wind Pressure Humidity
00:00 +30°C° 0 mm 3 mps 706 mmHg 34%
01:00 +29°C° 0 mm 4 mps 706 mmHg 39%
02:00 +28°C° 0 mm 4 mps 706 mmHg 45%
03:00 +27°C° 0 mm 4 mps 706 mmHg 50%
04:00 +27°C° 0 mm 4 mps 706 mmHg 52%
05:00 +26°C° 0 mm 4 mps 706 mmHg 55%
06:00 +26°C° 0 mm 4 mps 707 mmHg 57%
07:00 +27°C° 0 mm 4 mps 707 mmHg 52%
08:00 +29°C° 0 mm 3 mps 707 mmHg 46%
09:00 +31°C° 0 mm 3 mps 707 mmHg 41%
10:00 +33°C° 0 mm 3 mps 707 mmHg 35%
11:00 +35°C° 0 mm 2 mps 707 mmHg 30%
12:00 +36°C° 0 mm 1 mps 707 mmHg 25%
13:00 +38°C° 0 mm 2 mps 707 mmHg 22%
14:00 +39°C° 0 mm 2 mps 707 mmHg 19%
15:00 +40°C° 0 mm 2 mps 707 mmHg 16%
16:00 +40°C° 0 mm 2 mps 707 mmHg 15%
17:00 +40°C° 0 mm 2 mps 707 mmHg 14%
18:00 +40°C° 0 mm 2 mps 707 mmHg 13%
19:00 +38°C° 0 mm 2 mps 707 mmHg 16%
20:00 +36°C° 0 mm 3 mps 707 mmHg 19%
21:00 +34°C° 0 mm 3 mps 708 mmHg 21%
22:00 +33°C° 0 mm 3 mps 708 mmHg 27%
23:00 +32°C° 0 mm 4 mps 708 mmHg 32%

7 August, Friday

Time Temperature Precipitation Wind Pressure Humidity
00:00 +30°C° 0 mm 5 mps 708 mmHg 37%
01:00 +29°C° 0 mm 4 mps 708 mmHg 39%
02:00 +28°C° 0 mm 4 mps 708 mmHg 41%
03:00 +27°C° 0 mm 3 mps 708 mmHg 43%
04:00 +27°C° 0 mm 3 mps 709 mmHg 45%
05:00 +26°C° 0 mm 3 mps 709 mmHg 48%
06:00 +26°C° 0 mm 3 mps 709 mmHg 50%
07:00 +28°C° 0 mm 3 mps 709 mmHg 44%
08:00 +30°C° 0 mm 2 mps 710 mmHg 38%
09:00 +31°C° 0 mm 2 mps 710 mmHg 32%
10:00 +34°C° 0 mm 3 mps 710 mmHg 28%
11:00 +36°C° 0 mm 3 mps 710 mmHg 24%
12:00 +38°C° 0 mm 4 mps 710 mmHg 20%
13:00 +40°C° 0 mm 4 mps 709 mmHg 19%
14:00 +41°C° 0 mm 4 mps 709 mmHg 17%
15:00 +42°C° 0 mm 5 mps 709 mmHg 16%
16:00 +42°C° 0 mm 5 mps 709 mmHg 16%
17:00 +42°C° 0 mm 5 mps 708 mmHg 16%
18:00 +41°C° 0 mm 4 mps 708 mmHg 17%
19:00 +38°C° 0 mm 3 mps 708 mmHg 20%
20:00 +36°C° 0 mm 3 mps 709 mmHg 23%
21:00 +34°C° 0 mm 2 mps 709 mmHg 26%
22:00 +32°C° 0 mm 2 mps 709 mmHg 29%
23:00 +31°C° 0 mm 3 mps 710 mmHg 32%

8 August, Saturday

Time Temperature Precipitation Wind Pressure Humidity
00:00 +30°C° 0 mm 3 mps 710 mmHg 35%
01:00 +29°C° 0 mm 3 mps 710 mmHg 37%
02:00 +28°C° 0 mm 3 mps 710 mmHg 39%
03:00 +27°C° 0 mm 2 mps 709 mmHg 42%
04:00 +27°C° 0 mm 2 mps 709 mmHg 43%
05:00 +27°C° 0 mm 2 mps 710 mmHg 44%
06:00 +27°C° 0 mm 2 mps 710 mmHg 45%
07:00 +28°C° 0 mm 2 mps 710 mmHg 40%
08:00 +30°C° 0 mm 2 mps 710 mmHg 36%
09:00 +32°C° 0 mm 2 mps 710 mmHg 31%
10:00 +34°C° 0 mm 2 mps 710 mmHg 28%
11:00 +36°C° 0 mm 3 mps 710 mmHg 25%
12:00 +37°C° 0 mm 4 mps 710 mmHg 22%
13:00 +38°C° 0 mm 4 mps 709 mmHg 20%
14:00 +40°C° 0 mm 4 mps 709 mmHg 18%
15:00 +40°C° 0 mm 4 mps 708 mmHg 16%
16:00 +40°C° 0 mm 4 mps 708 mmHg 16%
17:00 +40°C° 0 mm 4 mps 708 mmHg 15%
18:00 +39°C° 0 mm 5 mps 708 mmHg 15%
19:00 +37°C° 0 mm 4 mps 708 mmHg 17%
20:00 +35°C° 0 mm 4 mps 708 mmHg 18%
21:00 +33°C° 0 mm 3 mps 708 mmHg 19%
22:00 +31°C° 0 mm 2 mps 708 mmHg 20%
23:00 +30°C° 0 mm 2 mps 708 mmHg 20%

9 August, Sunday

Time Temperature Precipitation Wind Pressure Humidity
00:00 +29°C° 0 mm 1 mps 708 mmHg 21%
01:00 +28°C° 0 mm 1 mps 708 mmHg 25%
02:00 +27°C° 0 mm 2 mps 708 mmHg 29%
03:00 +26°C° 0 mm 2 mps 707 mmHg 32%
04:00 +26°C° 0 mm 2 mps 707 mmHg 35%
05:00 +26°C° 0 mm 1 mps 708 mmHg 37%
06:00 +25°C° 0 mm 1 mps 708 mmHg 39%
07:00 +27°C° 0 mm 1 mps 708 mmHg 34%
08:00 +29°C° 0 mm 1 mps 708 mmHg 29%
09:00 +31°C° 0 mm 1 mps 708 mmHg 24%
10:00 +34°C° 0 mm 2 mps 708 mmHg 20%
11:00 +36°C° 0 mm 3 mps 707 mmHg 17%
12:00 +38°C° 0 mm 4 mps 707 mmHg 14%
13:00 +38°C° 0 mm 4 mps 707 mmHg 13%
14:00 +40°C° 0 mm 4 mps 706 mmHg 12%
15:00 +41°C° 0 mm 4 mps 706 mmHg 10%
16:00 +40°C° 0 mm 4 mps 706 mmHg 10%
17:00 +40°C° 0 mm 4 mps 705 mmHg 10%
18:00 +40°C° 0 mm 4 mps 705 mmHg 10%
19:00 +37°C° 0 mm 4 mps 705 mmHg 11%
20:00 +35°C° 0 mm 3 mps 705 mmHg 12%
21:00 +32°C° 0 mm 2 mps 706 mmHg 14%
22:00 +31°C° 0 mm 2 mps 705 mmHg 15%
23:00 +30°C° 0 mm 2 mps 705 mmHg 15%
Show more